Flag for Germany Weather past 2 weeks in Zweibrücken, Rhineland-Palatinate, Germany

Now
50 °F

Passing clouds.


Feels Like: 50 °F
Forecast: 36 / 62 °F
Wind: 2 mph from North

Location: Zweibrucken - Rheinland-Pfalz

Current Time: Sep 23, 2014 at 11:27:16 AM

Latest Report: Sep 23, 2014 at 10:50 AM


Visibility: N/A

Pressure: 30.21 "Hg

Humidity: 100%

Dew point: 50 °F

Location of ZweibrückenLocation

Historic Weather in Zweibrücken — Graph

°F

Zweibrücken temperature yesterday

Maximum temperature yesterday: 59 °F (at 3:50 PM)
Minimum temperature yesterday: 45 °F (at 10:50 PM)
Average temperature yesterday: 52 °F

Past Weeks' High & Low Weather Summary

 TemperatureHumidityPressure
High79 °F (Sep 17, 3:20 PM)100% (Sep 11, 8:50 AM)30.18 "Hg (Sep 11, 8:50 AM)
Low37 °F (Sep 23, 5:50 AM)53% (Sep 16, 5:50 PM)29.86 "Hg (Sep 17, 4:20 PM)
Average61 °F83%30.03 "Hg
* Reported Sep 8 10:20 AM — Sep 23 10:20 AM, Zweibrücken, Weather by CustomWeather, © 2014

Note: Actual official high and low records may vary slightly from our data, if they occured in-between our weather recording intervals... More about our weather records

Advertising

Zweibrücken weather history for previous 24 hours

 ConditionsComfort  
Time TempWeatherWind HumidityBarometerVisibility
10:20 AM
Sep 23
48 °FFog.3 mph94%30.18 "Hg2 mi
9:50 AM43 °FFog.2 mph100%30.18 "Hg0 mi
9:20 AM41 °FFog.1 mph100%30.18 "Hg0 mi
8:50 AM39 °FFog.2 mph100%30.18 "Hg0 mi
8:20 AM37 °FFog.1 mph100%30.18 "Hg0 mi
7:50 AM37 °FFog.2 mph93%30.18 "Hg0 mi
5:50 AM37 °FFog.No wind100%30.18 "Hg0 mi
5:20 AM39 °FFog.2 mph93%30.18 "Hg1 mi
4:50 AM39 °FFog.2 mph93%30.18 "Hg1 mi
4:20 AM39 °FFog.1 mph93%30.18 "Hg1 mi
1:20 AM43 °FFog.No wind100%30.18 "HgN/A
12:50 AM45 °FClear.3 mph93%30.18 "Hg10 mi
10:50 PM
Sep 22
45 °FClear.2 mph100%30.18 "Hg10 mi
10:20 PM46 °FClear.2 mph93%30.18 "Hg10 mi
9:50 PM46 °FClear.3 mph93%30.18 "Hg10 mi
9:20 PM50 °FSunny.2 mph82%30.18 "Hg10 mi
8:50 PM50 °FSunny.2 mph82%30.18 "Hg10 mi
8:20 PM50 °FSunny.3 mph82%30.18 "Hg10 mi
7:50 PM50 °FSunny.7 mph82%30.15 "Hg10 mi
7:20 PM50 °FSunny.7 mph88%30.15 "Hg10 mi
6:50 PM52 °FPassing clouds.6 mph82%30.12 "HgN/A
6:20 PM52 °FSunny.6 mph88%30.12 "Hg10 mi
5:50 PM52 °FScattered showers. Scattered clouds.8 mph88%30.12 "HgN/A
4:50 PM57 °FSprinkles. Scattered clouds.17 mph63%30.09 "HgN/A
4:20 PM59 °FSunny.20 mph55%30.09 "Hg10 mi
3:50 PM59 °FPassing clouds.15 mph63%30.07 "HgN/A
3:20 PM57 °FBroken clouds.12 mph67%30.09 "HgN/A
2:50 PM57 °FPartly sunny.12 mph67%30.09 "HgN/A
2:20 PM57 °FBroken clouds.14 mph67%30.09 "HgN/A
1:50 PM57 °FPartly sunny.10 mph67%30.09 "HgN/A
1:20 PM55 °FPartly sunny.12 mph72%30.12 "HgN/A
12:50 PM55 °FBroken clouds.14 mph72%30.12 "HgN/A
12:20 PM55 °FBroken clouds.12 mph77%30.12 "HgN/A
11:50 AM54 °FScattered clouds.9 mph88%30.15 "HgN/A
11:20 AM52 °FPartly sunny.9 mph88%30.15 "HgN/A
Weather by CustomWeather, © 2014

See weather overviewHow to use our weather pages

wound